Regional Weather Roundup
Issued by NWS

Home | Current Version | Previous Version | Graphics & Text | Print | Product List | Glossary On
Versions: 1 2 3 4 5 6 7 8 9 10 11 12 13 14 15 16 17 18 19 20 21 22 23 24 25 26 27 28 29 30 31 32 33 34 35 36 37 38 39 40 41 42 43 44 45 46 47 48 49 50
000
ASUS45 KSLC 271010
RWRUT

UTAH REGIONAL WEATHER ROUNDUP
NATIONAL WEATHER SERVICE SALT LAKE CITY UT
300 AM MST THU NOV 27 2014

UTZ001>011-023>025-271100-

NORTHERN UTAH

CITY           SKY/WX    TMP DP  RH WIND       PRES   REMARKS
BRIGHAM CITY   PTCLDY    44  28  52 W8        30.33S
HILL AFB       PTCLDY    42  25  51 SE10      30.33S
LOGAN          CLEAR     35  27  72 NE8       30.32R WCI  29
OGDEN          PTCLDY    40  27  59 S9        30.32S WCI  34
PROVO AIRPORT  PTCLDY    28  23  80 CALM      30.40S
SALT LAKE CITY PTCLDY    45  27  49 SE17      30.32S
VERNAL         PTCLDY    30  22  72 W3        30.41R
WENDOVER       MOCLDY    34  25  69 W6        30.32R WCI  29
HEBER CITY     PTCLDY    23  21  93 CALM      30.43S
WEST JORDAN    CLEAR     45  32  61 S14       30.35S

$$

UTZ012>022-026-027-271100-

SOUTHERN/CENTRAL UTAH

CITY           SKY/WX    TMP DP  RH WIND       PRES   REMARKS
BLANDING       CLEAR     35  21  55 N8        30.53S WCI  29
BRYCE CANYON   CLEAR     21  14  74 W8        30.51S WCI  11
CEDAR CITY     PTCLDY    30  18  60 N3        30.42S
DELTA          MOCLDY    32  26  78 NE5       30.39S WCI  27
MILFORD        NOT AVBL
MOAB/CYNLANDS  CLEAR     31  17  56 CALM      30.44R
PRICE          CLEAR     28  21  75 NE7       30.45R WCI  21
ST GEORGE      MOSUNNY   36  12  38 CALM      30.41R
KANAB          PTCLDY    30  14  51 NE8       30.47S WCI  23

$$

REGIONAL REPORTS     COLORADO/ARIZONA

CITY           SKY/WX    TMP DP  RH WIND       PRES   REMARKS
CRAIG, CO      CLEAR     24  20  84 SE3       30.43S
GRAND JUNCTION PTCLDY    29  24  82 E7        30.46S WCI  22
RIFLE          PTCLDY    25  21  85 CALM      30.50R
MONTROSE       PTCLDY    24  20  84 S7        30.51R WCI  16
CORTEZ         CLEAR     24  20  84 NE9       30.48R WCI  14
PAGE, AZ       PTCLDY    41  16  36 SW7       30.41F
GRAND CANYON   PTCLDY    17   7  64 CALM      30.48S
KINGMAN        CLEAR     38  17  42 NE3       30.32F
FLAGSTAFF      PTCLDY    24  13  62 NE3       30.47F

$$

REGIONAL REPORTS    NEVADA/IDAHO/WYOMING

CITY           SKY/WX    TMP DP  RH WIND       PRES   REMARKS
LAS VEGAS, NV  CLEAR     47  19  33 S9        30.27S
ELY            MOCLDY    26  14  60 S8        30.44S WCI  18
ELKO           CLOUDY    32  28  85 CALM      30.33R
POCATELLO, ID  CLEAR     52  26  36 S15G21    30.23F
BURLEY         CLOUDY    48  29  47 SW12      30.20F
EVANSTON, WY   PTCLDY    35  23  61 SW21      30.36S WCI  24
ROCK SPRINGS   MOCLDY    35  20  54 W12       30.33F WCI  27

$$



USA.gov is the U.S. government's official web portal to all federal, state and local government web resources and services.